| time (UTC) | temp C | wind direction | speed KPH | gust KPH | rain 1hr cm | rain 24hr cm | rain mn cm | humidity % | barometer mb |
| 20260506103433 | 18 | 22 | 3.2 | 12.9 | 0.00 | 0.00 | 0.00 | 47 | 1008.0 |
| 20260506102927 | 19 | 355 | 3.2 | 12.9 | 0.00 | 0.00 | 0.00 | 45 | 1008.0 |
| 20260506102428 | 19 | 0 | 1.6 | 12.9 | 0.00 | 0.00 | 0.00 | 43 | 1008.0 |
| 20260506102239 | 19 | 0 | 1.6 | 12.9 | 0.00 | 0.00 | 0.00 | 40 | 1007.9 |
| 20260506101742 | 19 | 9 | 3.2 | 12.9 | 0.00 | 0.00 | 0.00 | 37 | 1007.9 |
| 20260506100927 | 20 | 326 | 1.6 | 9.7 | 0.00 | 0.00 | 0.00 | 33 | 1008.0 |
| 20260506100427 | 20 | 331 | 1.6 | 9.7 | 0.00 | 0.00 | 0.00 | 29 | 1007.7 |
| 20260506095926 | 20 | 329 | 1.6 | 9.7 | 0.00 | 0.00 | 0.00 | 26 | 1007.6 |
| 20260506095424 | 20 | 350 | 0.0 | 1.6 | 0.00 | 0.00 | 0.00 | 21 | 1007.6 |
| 20260506094923 | 21 | 322 | 0.0 | 1.6 | 0.00 | 0.00 | 0.00 | 19 | 1007.6 |
| 20260506094830 | 21 | 170 | 0.0 | 0.0 | 0.00 | 0.00 | 0.00 | 19 | 1007.4 |
| 20260506094508 | 21 | 170 | 0.0 | 0.0 | 0.00 | 0.00 | 0.00 | 19 | 1007.5 |
| 20260506093721 | 21 | 170 | 0.0 | 0.0 | 0.00 | 0.00 | 0.00 | 19 | 1007.3 |
| 20260506092922 | 21 | 170 | 0.0 | 0.0 | 0.00 | 0.00 | 0.00 | 19 | 1007.3 |
| 20260506092422 | 21 | 170 | 0.0 | 0.0 | 0.00 | 0.00 | 0.00 | 19 | 1007.3 |
| 20260506091926 | 21 | 170 | 0.0 | 0.0 | 0.00 | 0.00 | 0.00 | 19 | 1007.3 |
| 20260506091328 | 21 | 170 | 0.0 | 1.6 | 0.00 | 0.00 | 0.00 | 19 | 1007.2 |
| 20260506090818 | 21 | 170 | 0.0 | 0.0 | 0.00 | 0.00 | 0.00 | 20 | 1007.2 |
| 20260506090312 | 21 | 170 | 0.0 | 0.0 | 0.00 | 0.00 | 0.00 | 20 | 1007.1 |
| 20260506085810 | 21 | 170 | 0.0 | 0.0 | 0.00 | 0.00 | 0.00 | 20 | 1007.1 |
| 20260506085622 | 21 | 170 | 0.0 | 1.6 | 0.00 | 0.00 | 0.00 | 20 | 1007.1 |
| 20260506085117 | 21 | 170 | 0.0 | 1.6 | 0.00 | 0.00 | 0.00 | 20 | 1007.2 |
| 20260506084620 | 21 | 170 | 0.0 | 0.0 | 0.00 | 0.00 | 0.00 | 20 | 1007.2 |
| 20260506083811 | 21 | 170 | 0.0 | 0.0 | 0.00 | 0.00 | 0.00 | 20 | 1007.1 |
| 20260506083310 | 21 | 170 | 0.0 | 0.0 | 0.00 | 0.00 | 0.00 | 21 | 1007.1 |
| 20260506082808 | 21 | 170 | 0.0 | 0.0 | 0.00 | 0.00 | 0.00 | 21 | 1007.1 |
| 20260506082606 | 21 | 170 | 0.0 | 0.0 | 0.00 | 0.00 | 0.00 | 21 | 1007.0 |
| 20260506082559 | 21 | 170 | 0.0 | 0.0 | 0.00 | 0.00 | 0.00 | 21 | 1007.0 |
| 20260506081308 | 21 | 170 | 0.0 | 0.0 | 0.00 | 0.00 | 0.00 | 21 | 1007.0 |
| 20260506080808 | 20 | 170 | 0.0 | 0.0 | 0.00 | 0.00 | 0.00 | 22 | 1006.9 |
| 20260506080616 | 20 | 170 | 0.0 | 0.0 | 0.00 | 0.00 | 0.00 | 22 | 1007.0 |
| 20260506073308 | 20 | 170 | 0.0 | 0.0 | 0.00 | 0.00 | 0.00 | 24 | 1007.0 |
| 20260506072807 | 20 | 170 | 0.0 | 9.7 | 0.00 | 0.00 | 0.00 | 25 | 1007.0 |
| 20260506072306 | 19 | 148 | 0.0 | 9.7 | 0.00 | 0.00 | 0.00 | 26 | 1007.0 |
| 20260506071808 | 18 | 168 | 0.0 | 3.2 | 0.00 | 0.00 | 0.00 | 28 | 1006.9 |
| 20260506071307 | 18 | 168 | 0.0 | 3.2 | 0.00 | 0.00 | 0.00 | 29 | 1006.9 |
| 20260506070808 | 18 | 168 | 0.0 | 3.2 | 0.00 | 0.00 | 0.00 | 32 | 1006.9 |
| 20260506070308 | 18 | 168 | 0.0 | 0.0 | 0.00 | 0.00 | 0.00 | 36 | 1007.0 |
| 20260506070108 | 18 | 168 | 0.0 | 0.0 | 0.00 | 0.00 | 0.00 | 37 | 1006.9 |
| 20260506061801 | 18 | 168 | 0.0 | 0.0 | 0.00 | 0.00 | 0.00 | 42 | 1006.9 |
| 20260506061303 | 18 | 168 | 0.0 | 0.0 | 0.00 | 0.00 | 0.00 | 41 | 1007.0 |
| 20260506061122 | 18 | 168 | 0.0 | 0.0 | 0.00 | 0.00 | 0.00 | 43 | 1006.9 |
| 20260506060301 | 19 | 168 | 0.0 | 0.0 | 0.00 | 0.00 | 0.00 | 44 | 1006.9 |
| 20260506051252 | 20 | 168 | 0.0 | 0.0 | 0.00 | 0.00 | 0.00 | 47 | 1007.2 |
| 20260506050752 | 20 | 168 | 0.0 | 0.0 | 0.00 | 0.00 | 0.00 | 47 | 1007.2 |
| 20260506050254 | 20 | 168 | 0.0 | 0.0 | 0.00 | 0.00 | 0.00 | 47 | 1007.1 |
| 20260506050132 | 20 | 168 | 0.0 | 0.0 | 0.00 | 0.00 | 0.00 | 46 | 1007.0 |
| 20260506044748 | 20 | 168 | 0.0 | 0.0 | 0.00 | 0.00 | 0.00 | 50 | 1007.1 |
| 20260506044247 | 20 | 168 | 0.0 | 0.0 | 0.00 | 0.00 | 0.00 | 56 | 1007.0 |
| 20260506043745 | 20 | 168 | 0.0 | 0.0 | 0.00 | 0.00 | 0.00 | 58 | 1006.9 |
| 20260506043244 | 20 | 168 | 0.0 | 0.0 | 0.00 | 0.00 | 0.00 | 59 | 1006.9 |
| 20260506042737 | 20 | 168 | 0.0 | 0.0 | 0.00 | 0.00 | 0.00 | 59 | 1006.9 |
| 20260506042540 | 20 | 168 | 0.0 | 0.0 | 0.00 | 0.00 | 0.00 | 60 | 1007.0 |
| 20260506041733 | 20 | 168 | 0.0 | 0.0 | 0.00 | 0.00 | 0.00 | 60 | 1006.8 |
| 20260506041231 | 21 | 168 | 0.0 | 0.0 | 0.00 | 0.00 | 0.00 | 63 | 1006.9 |
| 20260506040730 | 21 | 168 | 0.0 | 1.6 | 0.00 | 0.00 | 0.00 | 65 | 1006.9 |
| 20260506040228 | 21 | 168 | 0.0 | 1.6 | 0.00 | 0.00 | 0.00 | 66 | 1006.8 |
| 20260506035727 | 21 | 168 | 0.0 | 0.0 | 0.00 | 0.00 | 0.00 | 67 | 1006.8 |
| 20260506035228 | 21 | 168 | 0.0 | 0.0 | 0.00 | 0.00 | 0.00 | 66 | 1006.6 |
| 20260506034722 | 21 | 168 | 0.0 | 0.0 | 0.00 | 0.00 | 0.00 | 67 | 1006.6 |
| 20260506034221 | 21 | 168 | 0.0 | 0.0 | 0.00 | 0.00 | 0.00 | 69 | 1006.6 |
| 20260506033719 | 21 | 168 | 0.0 | 0.0 | 0.00 | 0.00 | 0.00 | 70 | 1006.4 |
| 20260506033221 | 22 | 168 | 0.0 | 0.0 | 0.00 | 0.00 | 0.00 | 70 | 1006.5 |
| 20260506032721 | 22 | 168 | 0.0 | 0.0 | 0.00 | 0.00 | 0.00 | 70 | 1006.5 |
| 20260506032216 | 22 | 168 | 0.0 | 0.0 | 0.00 | 0.00 | 0.00 | 70 | 1006.4 |
| 20260506031716 | 22 | 168 | 0.0 | 0.0 | 0.00 | 0.00 | 0.00 | 70 | 1006.3 |
| 20260506031519 | 23 | 170 | 0.0 | 0.0 | 0.00 | 0.00 | 0.00 | 71 | 1006.2 |
| 20260506030712 | 23 | 170 | 0.0 | 0.0 | 0.00 | 0.00 | 0.00 | 70 | 1006.2 |
| 20260506030223 | 23 | 170 | 0.0 | 0.0 | 0.00 | 0.00 | 0.00 | 71 | 1006.1 |
| 20260506025838 | 23 | 170 | 0.0 | 0.0 | 0.00 | 0.00 | 0.00 | 70 | 1006.1 |
| 20260506025020 | 24 | 170 | 0.0 | 0.0 | 0.00 | 0.00 | 0.00 | 70 | 1006.0 |
| 20260506024516 | 24 | 170 | 0.0 | 0.0 | 0.00 | 0.00 | 0.00 | 70 | 1005.9 |
| 20260506024010 | 25 | 170 | 0.0 | 0.0 | 0.00 | 0.00 | 0.00 | 69 | 1005.8 |
| 20260506023510 | 25 | 170 | 0.0 | 0.0 | 0.00 | 0.00 | 0.00 | 69 | 1005.5 |
| 20260506023008 | 25 | 170 | 0.0 | 0.0 | 0.00 | 0.00 | 0.00 | 69 | 1005.5 |
| 20260506022508 | 25 | 170 | 0.0 | 0.0 | 0.00 | 0.00 | 0.00 | 69 | 1005.5 |
| 20260506022006 | 25 | 170 | 0.0 | 0.0 | 0.00 | 0.00 | 0.00 | 68 | 1005.4 |
| 20260506021505 | 26 | 170 | 0.0 | 0.0 | 0.00 | 0.00 | 0.00 | 68 | 1005.3 |
| 20260506021006 | 26 | 170 | 0.0 | 3.2 | 0.00 | 0.00 | 0.00 | 68 | 1005.2 |
| 20260506020506 | 26 | 170 | 0.0 | 3.2 | 0.00 | 0.00 | 0.00 | 68 | 1005.2 |
| 20260506020004 | 26 | 163 | 0.0 | 0.0 | 0.00 | 0.00 | 0.00 | 67 | 1005.1 |
| 20260506015504 | 26 | 163 | 0.0 | 0.0 | 0.00 | 0.00 | 0.00 | 67 | 1005.1 |
| 20260506015004 | 26 | 163 | 0.0 | 8.0 | 0.00 | 0.00 | 0.00 | 66 | 1005.1 |
| 20260506014507 | 26 | 163 | 0.0 | 8.0 | 0.00 | 0.00 | 0.00 | 66 | 1004.9 |
| 20260506014010 | 27 | 138 | 0.0 | 3.2 | 0.00 | 0.00 | 0.00 | 64 | 1004.6 |
| 20260506013506 | 27 | 92 | 0.0 | 4.8 | 0.00 | 0.00 | 0.00 | 63 | 1004.6 |
| 20260506013004 | 27 | 92 | 0.0 | 4.8 | 0.00 | 0.00 | 0.00 | 61 | 1004.6 |
| 20260506012811 | 28 | 92 | 0.0 | 4.8 | 0.00 | 0.00 | 0.00 | 59 | 1004.5 |
| 20260506012001 | 28 | 92 | 0.0 | 4.8 | 0.00 | 0.00 | 0.00 | 57 | 1004.4 |
| 20260506011501 | 30 | 32 | 0.0 | 1.6 | 0.00 | 0.00 | 0.00 | 54 | 1004.4 |
| 20260506011003 | 30 | 311 | 0.0 | 0.0 | 0.00 | 0.00 | 0.00 | 54 | 1004.3 |
| 20260506010502 | 31 | 311 | 0.0 | 0.0 | 0.00 | 0.00 | 0.00 | 53 | 1004.2 |
| 20260506010310 | 31 | 311 | 0.0 | 0.0 | 0.00 | 0.00 | 0.00 | 51 | 1004.2 |
| 20260506005806 | 32 | 311 | 0.0 | 0.0 | 0.00 | 0.00 | 0.00 | 52 | 1004.1 |
| 20260506004957 | 32 | 311 | 0.0 | 0.0 | 0.00 | 0.00 | 0.00 | 50 | 1004.1 |
| 20260506004455 | 32 | 311 | 0.0 | 0.0 | 0.00 | 0.00 | 0.00 | 49 | 1004.0 |
| 20260506004258 | 33 | 311 | 0.0 | 0.0 | 0.00 | 0.00 | 0.00 | 44 | 1004.1 |
| 20260506003756 | 33 | 311 | 0.0 | 0.0 | 0.00 | 0.00 | 0.00 | 44 | 1004.1 |
| 20260506002953 | 33 | 311 | 0.0 | 0.0 | 0.00 | 0.00 | 0.00 | 46 | 1004.1 |
| 20260506002505 | 33 | 311 | 0.0 | 0.0 | 0.00 | 0.00 | 0.00 | 46 | 1004.1 |
| 20260506002000 | 33 | 311 | 0.0 | 0.0 | 0.00 | 0.00 | 0.00 | 44 | 1004.2 |
| 20260506001501 | 33 | 311 | 0.0 | 0.0 | 0.00 | 0.00 | 0.00 | 41 | 1004.2 |
| 20260506000953 | 33 | 311 | 0.0 | 0.0 | 0.00 | 0.00 | 0.00 | 42 | 1004.2 |
| 20260506000448 | 33 | 311 | 0.0 | 0.0 | 0.00 | 0.00 | 0.00 | 39 | 1004.2 |
| 20260505235942 | 33 | 311 | 0.0 | 0.0 | 0.00 | 0.00 | 0.00 | 40 | 1004.1 |
| 20260505235243 | 33 | 311 | 0.0 | 1.6 | 0.00 | 0.00 | 0.00 | 40 | 1004.2 |
| 20260505234744 | 33 | 311 | 0.0 | 0.0 | 0.00 | 0.00 | 0.00 | 37 | 1004.2 |
| 20260505234140 | 33 | 286 | 0.0 | 3.2 | 0.00 | 0.00 | 0.00 | 38 | 1004.1 |
| 20260505233633 | 33 | 310 | 0.0 | 6.4 | 0.00 | 0.00 | 0.00 | 42 | 1004.1 |
| 20260505233134 | 33 | 305 | 0.0 | 6.4 | 0.00 | 0.00 | 0.00 | 41 | 1004.1 |
| 20260505232630 | 33 | 5 | 0.0 | 4.8 | 0.00 | 0.00 | 0.00 | 39 | 1004.1 |
| 20260505232129 | 33 | 5 | 0.0 | 4.8 | 0.00 | 0.00 | 0.00 | 42 | 1004.1 |
| 20260505231629 | 33 | 355 | 0.0 | 1.6 | 0.00 | 0.00 | 0.00 | 41 | 1004.2 |
| 20260505231129 | 33 | 313 | 0.0 | 1.6 | 0.00 | 0.00 | 0.00 | 41 | 1004.1 |
| 20260505230946 | 33 | 285 | 0.0 | 1.6 | 0.00 | 0.00 | 0.00 | 41 | 1004.2 |
| 20260505230129 | 33 | 296 | 0.0 | 1.6 | 0.00 | 0.00 | 0.00 | 40 | 1004.2 |
| 20260505225635 | 33 | 331 | 0.0 | 4.8 | 0.00 | 0.00 | 0.00 | 40 | 1004.1 |
| 20260505225138 | 33 | 327 | 0.0 | 0.0 | 0.00 | 0.00 | 0.00 | 41 | 1004.1 |
| 20260505224431 | 34 | 250 | 0.0 | 1.6 | 0.00 | 0.00 | 0.00 | 39 | 1004.2 |
| 20260505223932 | 34 | 248 | 0.0 | 3.2 | 0.00 | 0.00 | 0.00 | 36 | 1004.3 |
| 20260505223431 | 34 | 275 | 0.0 | 3.2 | 0.00 | 0.00 | 0.00 | 35 | 1004.1 |
| 20260505222930 | 34 | 306 | 1.6 | 8.0 | 0.00 | 0.00 | 0.00 | 36 | 1004.1 |
| 20260505222800 | 35 | 292 | 1.6 | 8.0 | 0.00 | 0.00 | 0.00 | 36 | 1004.0 |
| 20260505222242 | 35 | 337 | 1.6 | 9.7 | 0.00 | 0.00 | 0.00 | 37 | 1004.1 |
| 20260505221430 | 35 | 311 | 1.6 | 9.7 | 0.00 | 0.00 | 0.00 | 35 | 1004.1 |
| 20260505220930 | 35 | 313 | 0.0 | 3.2 | 0.00 | 0.00 | 0.00 | 35 | 1004.0 |
| 20260505220430 | 35 | 320 | 0.0 | 3.2 | 0.00 | 0.00 | 0.00 | 33 | 1004.2 |
| 20260505215929 | 35 | 296 | 0.0 | 1.6 | 0.00 | 0.00 | 0.00 | 33 | 1004.2 |
| 20260505215432 | 35 | 257 | 0.0 | 1.6 | 0.00 | 0.00 | 0.00 | 36 | 1004.2 |
| 20260505214928 | 35 | 230 | 0.0 | 1.6 | 0.00 | 0.00 | 0.00 | 34 | 1004.2 |
| 20260505214421 | 35 | 268 | 0.0 | 1.6 | 0.00 | 0.00 | 0.00 | 36 | 1004.2 |
| 20260505213915 | 34 | 325 | 0.0 | 1.6 | 0.00 | 0.00 | 0.00 | 36 | 1004.3 |
| 20260505213420 | 34 | 255 | 0.0 | 1.6 | 0.00 | 0.00 | 0.00 | 34 | 1004.2 |
| 20260505212912 | 34 | 238 | 0.0 | 1.6 | 0.00 | 0.00 | 0.00 | 34 | 1004.3 |
| 20260505212412 | 34 | 258 | 0.0 | 1.6 | 0.00 | 0.00 | 0.00 | 37 | 1004.3 |
| 20260505211913 | 34 | 258 | 0.0 | 4.8 | 0.00 | 0.00 | 0.00 | 36 | 1004.2 |
| 20260505211412 | 34 | 262 | 0.0 | 11.3 | 0.00 | 0.00 | 0.00 | 36 | 1004.4 |
| 20260505210910 | 34 | 220 | 0.0 | 11.3 | 0.00 | 0.00 | 0.00 | 33 | 1004.5 |
| 20260505210407 | 34 | 220 | 4.8 | 14.5 | 0.00 | 0.00 | 0.00 | 38 | 1004.4 |
| 20260505205906 | 34 | 234 | 8.0 | 14.5 | 0.00 | 0.00 | 0.00 | 35 | 1004.5 |
| 20260505205405 | 34 | 274 | 4.8 | 14.5 | 0.00 | 0.00 | 0.00 | 37 | 1004.6 |
| 20260505204911 | 34 | 312 | 1.6 | 14.5 | 0.00 | 0.00 | 0.00 | 42 | 1004.6 |
| 20260505204403 | 34 | 244 | 0.0 | 1.6 | 0.00 | 0.00 | 0.00 | 44 | 1004.6 |
| 20260505203902 | 33 | 265 | 0.0 | 3.2 | 0.00 | 0.00 | 0.00 | 42 | 1004.9 |
| 20260505203402 | 34 | 264 | 1.6 | 4.8 | 0.00 | 0.00 | 0.00 | 41 | 1004.8 |
| 20260505202901 | 33 | 227 | 1.6 | 14.5 | 0.00 | 0.00 | 0.00 | 45 | 1004.9 |
| 20260505202401 | 33 | 253 | 0.0 | 14.5 | 0.00 | 0.00 | 0.00 | 44 | 1004.9 |
| 20260505201902 | 33 | 156 | 0.0 | 1.6 | 0.00 | 0.00 | 0.00 | 47 | 1005.0 |
| 20260505201709 | 33 | 257 | 0.0 | 1.6 | 0.00 | 0.00 | 0.00 | 44 | 1005.0 |
| 20260505200902 | 33 | 152 | 0.0 | 0.0 | 0.00 | 0.00 | 0.00 | 46 | 1005.0 |
| 20260505200408 | 33 | 221 | 0.0 | 1.6 | 0.00 | 0.00 | 0.00 | 47 | 1005.1 |
| 20260505195901 | 33 | 247 | 0.0 | 1.6 | 0.00 | 0.00 | 0.00 | 46 | 1005.2 |
| 20260505195402 | 33 | 232 | 0.0 | 0.0 | 0.00 | 0.00 | 0.00 | 46 | 1005.1 |
| 20260505194901 | 33 | 248 | 0.0 | 1.6 | 0.00 | 0.00 | 0.00 | 47 | 1005.1 |
| 20260505194359 | 33 | 248 | 0.0 | 1.6 | 0.00 | 0.00 | 0.00 | 46 | 1005.2 |
| 20260505194217 | 33 | 302 | 0.0 | 1.6 | 0.00 | 0.00 | 0.00 | 46 | 1005.3 |
| 20260505193719 | 32 | 172 | 0.0 | 1.6 | 0.00 | 0.00 | 0.00 | 51 | 1005.2 |
| 20260505192903 | 32 | 278 | 0.0 | 1.6 | 0.00 | 0.00 | 0.00 | 49 | 1005.2 |
| 20260505192353 | 32 | 221 | 0.0 | 1.6 | 0.00 | 0.00 | 0.00 | 51 | 1005.2 |
| 20260505191858 | 32 | 295 | 0.0 | 1.6 | 0.00 | 0.00 | 0.00 | 48 | 1005.4 |
| 20260505191354 | 32 | 228 | 0.0 | 1.6 | 0.00 | 0.00 | 0.00 | 52 | 1005.4 |
| 20260505190855 | 32 | 195 | 0.0 | 1.6 | 0.00 | 0.00 | 0.00 | 53 | 1005.6 |
| 20260505190352 | 32 | 229 | 0.0 | 0.0 | 0.00 | 0.00 | 0.00 | 57 | 1005.5 |
| 20260505190159 | 32 | 215 | 0.0 | 0.0 | 0.00 | 0.00 | 0.00 | 57 | 1005.6 |
| 20260505185656 | 32 | 134 | 0.0 | 0.0 | 0.00 | 0.00 | 0.00 | 54 | 1005.6 |
| 20260505185135 | 31 | 219 | 0.0 | 0.0 | 0.00 | 0.00 | 0.00 | 56 | 1005.7 |
| 20260505183814 | 31 | 171 | 0.0 | 0.0 | 0.00 | 0.00 | 0.00 | 60 | 1005.9 |
| 20260505183314 | 31 | 228 | 0.0 | 1.6 | 0.00 | 0.00 | 0.00 | 60 | 1006.0 |
| 20260505182813 | 31 | 250 | 0.0 | 1.6 | 0.00 | 0.00 | 0.00 | 57 | 1006.1 |
| 20260505182311 | 31 | 230 | 0.0 | 0.0 | 0.00 | 0.00 | 0.00 | 60 | 1006.3 |
| 20260505181808 | 30 | 220 | 0.0 | 6.4 | 0.00 | 0.00 | 0.00 | 60 | 1006.3 |
| 20260505181316 | 30 | 281 | 0.0 | 6.4 | 0.00 | 0.00 | 0.00 | 60 | 1006.4 |
| 20260505180811 | 30 | 229 | 0.0 | 1.6 | 0.00 | 0.00 | 0.00 | 60 | 1006.5 |
| 20260505180309 | 30 | 234 | 0.0 | 1.6 | 0.00 | 0.00 | 0.00 | 61 | 1006.5 |
| 20260505175808 | 30 | 224 | 0.0 | 8.0 | 0.00 | 0.00 | 0.00 | 61 | 1006.8 |
| 20260505175306 | 30 | 227 | 1.6 | 11.3 | 0.00 | 0.00 | 0.00 | 62 | 1006.9 |
| 20260505174802 | 29 | 231 | 4.8 | 16.1 | 0.00 | 0.00 | 0.00 | 61 | 1007.0 |
| 20260505174301 | 29 | 244 | 6.4 | 16.1 | 0.00 | 0.00 | 0.00 | 62 | 1007.0 |
| 20260505173802 | 29 | 232 | 8.0 | 16.1 | 0.00 | 0.00 | 0.00 | 63 | 1007.0 |
| 20260505173259 | 29 | 226 | 4.8 | 16.1 | 0.00 | 0.00 | 0.00 | 65 | 1007.1 |
| 20260505172759 | 28 | 258 | 1.6 | 14.5 | 0.00 | 0.00 | 0.00 | 64 | 1007.2 |
| 20260505172259 | 28 | 232 | 3.2 | 14.5 | 0.00 | 0.00 | 0.00 | 64 | 1007.3 |
| 20260505171800 | 28 | 215 | 8.0 | 14.5 | 0.00 | 0.00 | 0.00 | 65 | 1007.3 |
| 20260505171259 | 28 | 220 | 8.0 | 14.5 | 0.00 | 0.00 | 0.00 | 64 | 1007.3 |
| 20260505171104 | 28 | 229 | 1.6 | 14.5 | 0.00 | 0.00 | 0.00 | 65 | 1007.2 |
| 20260505170256 | 28 | 224 | 0.0 | 3.2 | 0.00 | 0.00 | 0.00 | 67 | 1007.3 |
| 20260505165758 | 28 | 217 | 0.0 | 4.8 | 0.00 | 0.00 | 0.00 | 68 | 1007.3 |
| 20260505165739 | 27 | 240 | 1.6 | 14.5 | 0.00 | 0.00 | 0.00 | 69 | 1007.3 |
| 20260505165358 | 27 | 258 | 1.6 | 11.3 | 0.00 | 0.00 | 0.00 | 68 | 1007.3 |
| 20260505164255 | 27 | 231 | 0.0 | 14.5 | 0.00 | 0.00 | 0.00 | 69 | 1007.3 |
| 20260505163753 | 27 | 170 | 1.6 | 12.9 | 0.00 | 0.00 | 0.00 | 69 | 1007.1 |
| 20260505163252 | 26 | 223 | 1.6 | 12.9 | 0.00 | 0.00 | 0.00 | 69 | 1007.1 |
| 20260505162756 | 26 | 204 | 0.0 | 11.3 | 0.00 | 0.00 | 0.00 | 69 | 1007.1 |
| 20260505162607 | 26 | 211 | 0.0 | 1.6 | 0.00 | 0.00 | 0.00 | 70 | 1007.0 |
| 20260505161754 | 26 | 221 | 0.0 | 1.6 | 0.00 | 0.00 | 0.00 | 70 | 1007.0 |
| 20260505161253 | 26 | 229 | 0.0 | 1.6 | 0.00 | 0.00 | 0.00 | 70 | 1007.0 |
| 20260505160748 | 25 | 218 | 1.6 | 12.9 | 0.00 | 0.00 | 0.00 | 70 | 1007.0 |
| 20260505160247 | 25 | 225 | 4.8 | 12.9 | 0.00 | 0.00 | 0.00 | 68 | 1007.0 |
| 20260505152751 | 23 | 223 | 11.3 | 19.3 | 0.00 | 0.00 | 0.00 | 66 | 1007.1 |
| 20260505152250 | 23 | 217 | 9.7 | 16.1 | 0.00 | 0.00 | 0.00 | 63 | 1007.2 |
| 20260505151749 | 23 | 232 | 8.0 | 14.5 | 0.00 | 0.00 | 0.00 | 62 | 1007.2 |
| 20260505151254 | 23 | 227 | 9.7 | 0.0 | 0.00 | 0.00 | 0.00 | 63 | 1007.1 |
| 20260505150810 | 22 | 210 | 9.7 | 22.5 | 0.00 | 0.00 | 0.00 | 63 | 1007.1 |
| 20260505150631 | 22 | 227 | 9.7 | 17.7 | 0.00 | 0.00 | 0.00 | 61 | 1007.0 |
| 20260505140420 | 20 | 242 | 0.0 | 0.0 | 0.00 | 0.00 | 0.00 | 25 | 1007.0 |
| 20260505130257 | 18 | 210 | 0.0 | 11.3 | 0.00 | 0.00 | 0.00 | 23 | 1006.2 |
| 20260505124159 | 18 | 196 | 0.0 | 4.8 | 0.00 | 0.00 | 0.00 | 25 | 1006.2 |
| 20260505123659 | 18 | 186 | 0.0 | 4.8 | 0.00 | 0.00 | 0.00 | 25 | 1006.1 |
| 20260505123158 | 18 | 226 | 0.0 | 0.0 | 0.00 | 0.00 | 0.00 | 25 | 1006.1 |
| 20260505123003 | 17 | 202 | 0.0 | 0.0 | 0.00 | 0.00 | 0.00 | 26 | 1006.1 |
| 20260505122154 | 17 | 170 | 0.0 | 0.0 | 0.00 | 0.00 | 0.00 | 26 | 1006.2 |
| 20260505121954 | 17 | 170 | 0.0 | 0.0 | 0.00 | 0.00 | 0.00 | 27 | 1006.0 |
| 20260505121145 | 17 | 170 | 0.0 | 0.0 | 0.00 | 0.00 | 0.00 | 27 | 1005.9 |
| 20260505120639 | 17 | 170 | 0.0 | 0.0 | 0.00 | 0.00 | 0.00 | 28 | 1005.8 |
| 20260505120143 | 17 | 170 | 0.0 | 0.0 | 0.00 | 0.00 | 0.00 | 28 | 1005.7 |
| 20260505115823 | 17 | 170 | 0.0 | 0.0 | 0.00 | 0.00 | 0.00 | 28 | 1005.7 |
| 20260505115319 | 17 | 170 | 0.0 | 0.0 | 0.00 | 0.00 | 0.00 | 28 | 1005.6 |
| 20260505114818 | 17 | 170 | 0.0 | 0.0 | 0.00 | 0.00 | 0.00 | 29 | 1005.6 |
| 20260505114316 | 17 | 170 | 0.0 | 0.0 | 0.00 | 0.00 | 0.00 | 29 | 1005.5 |
| 20260505114123 | 17 | 170 | 0.0 | 0.0 | 0.00 | 0.00 | 0.00 | 29 | 1005.4 |
| 20260505113636 | 17 | 170 | 0.0 | 0.0 | 0.00 | 0.00 | 0.00 | 30 | 1005.3 |
| 20260505113127 | 17 | 170 | 0.0 | 0.0 | 0.00 | 0.00 | 0.00 | 30 | 1005.3 |
| 20260505112312 | 17 | 170 | 0.0 | 0.0 | 0.00 | 0.00 | 0.00 | 31 | 1005.3 |
| 20260505111811 | 17 | 170 | 0.0 | 0.0 | 0.00 | 0.00 | 0.00 | 31 | 1005.3 |
| 20260505111308 | 17 | 170 | 0.0 | 0.0 | 0.00 | 0.00 | 0.00 | 31 | 1005.3 |
| 20260505111120 | 17 | 170 | 0.0 | 0.0 | 0.00 | 0.00 | 0.00 | 32 | 1005.3 |
| 20260505110304 | 17 | 170 | 0.0 | 0.0 | 0.00 | 0.00 | 0.00 | 32 | 1005.3 |